When you browse on this site, cookies collect data to enhance your experience and personalize the content and advertising you see.
Visit our Privacy Policy to learn more. By continuing to use the site, you agree to this use of cookies and data.
  • In Romania
  • List of Countries
  • For 7 days
  • Water Temperature
  • Satellite Maps
  • Weather Map
  • Weather Widgets
  • user-avatar
    Login

    Hourly Weather Hvorostevo

    Today, 21 July, Sunday

    Time Temperature Precipitation Wind Pressure Humidity
    00:00 +14°C° 0 mm 1 mps 742 mmHg 97%
    01:00 +13°C° 0 mm 1 mps 743 mmHg 98%
    02:00 +13°C° 0 mm 1 mps 743 mmHg 98%
    03:00 +13°C° 0 mm 1 mps 743 mmHg 98%
    04:00 +13°C° 0 mm 1 mps 743 mmHg 98%
    05:00 +13°C° 0 mm 1 mps 743 mmHg 98%
    06:00 +15°C° 0 mm 1 mps 744 mmHg 92%
    07:00 +18°C° 0 mm 1 mps 744 mmHg 86%
    08:00 +20°C° 0 mm 1 mps 744 mmHg 80%
    09:00 +21°C° 0.2 mm 1 mps 744 mmHg 76%
    10:00 +22°C° 0.2 mm 1 mps 744 mmHg 71%
    11:00 +23°C° 0.2 mm 1 mps 744 mmHg 66%
    12:00 +24°C° 0.6 mm 1 mps 744 mmHg 65%
    13:00 +24°C° 0.6 mm 1 mps 744 mmHg 64%
    14:00 +24°C° 0.6 mm 1 mps 744 mmHg 64%
    15:00 +24°C° 0.6 mm 1 mps 743 mmHg 68%
    16:00 +24°C° 0.6 mm 1 mps 743 mmHg 73%
    17:00 +23°C° 0.6 mm 1 mps 743 mmHg 77%
    18:00 +21°C° 0.2 mm 1 mps 743 mmHg 82%
    19:00 +20°C° 0.2 mm 1 mps 743 mmHg 86%
    20:00 +18°C° 0.2 mm 1 mps 743 mmHg 90%
    21:00 +16°C° 0 mm 1 mps 743 mmHg 91%
    22:00 +15°C° 0 mm 0 mps 743 mmHg 92%
    23:00 +14°C° 0 mm 0 mps 743 mmHg 93%

    Tomorrow, 22 July, Monday

    Time Temperature Precipitation Wind Pressure Humidity
    00:00 +13°C° 0 mm 0 mps 743 mmHg 93%
    01:00 +13°C° 0 mm 0 mps 743 mmHg 94%
    02:00 +13°C° 0 mm 0 mps 743 mmHg 94%
    03:00 +13°C° 0 mm 0 mps 743 mmHg 94%
    04:00 +13°C° 0 mm 0 mps 743 mmHg 94%
    05:00 +13°C° 0 mm 0 mps 743 mmHg 94%
    06:00 +15°C° 0 mm 0 mps 743 mmHg 89%
    07:00 +17°C° 0 mm 0 mps 743 mmHg 84%
    08:00 +19°C° 0 mm 0 mps 742 mmHg 79%
    09:00 +21°C° 0 mm 0 mps 742 mmHg 71%
    10:00 +22°C° 0 mm 0 mps 742 mmHg 62%
    11:00 +24°C° 0 mm 0 mps 742 mmHg 54%
    12:00 +24°C° 0 mm 0 mps 742 mmHg 52%
    13:00 +24°C° 0 mm 0 mps 742 mmHg 49%
    14:00 +24°C° 0 mm 0 mps 741 mmHg 47%
    15:00 +26°C° 0 mm 1 mps 741 mmHg 51%
    16:00 +25°C° 0 mm 1 mps 741 mmHg 55%
    17:00 +25°C° 0 mm 1 mps 741 mmHg 58%
    18:00 +23°C° 0 mm 1 mps 741 mmHg 67%
    19:00 +21°C° 0 mm 1 mps 741 mmHg 77%
    20:00 +18°C° 0 mm 2 mps 741 mmHg 86%
    21:00 +18°C° 0 mm 1 mps 741 mmHg 87%
    22:00 +18°C° 0 mm 1 mps 741 mmHg 89%
    23:00 +16°C° 0 mm 1 mps 741 mmHg 91%

    Day after tomorrow, 23 July, Tuesday

    Time Temperature Precipitation Wind Pressure Humidity
    00:00 +16°C° 0 mm 1 mps 741 mmHg 92%
    01:00 +15°C° 0 mm 1 mps 741 mmHg 93%
    02:00 +15°C° 0 mm 1 mps 740 mmHg 94%
    03:00 +15°C° 0 mm 1 mps 740 mmHg 94%
    04:00 +15°C° 0 mm 1 mps 741 mmHg 94%
    05:00 +15°C° 0 mm 1 mps 741 mmHg 93%
    06:00 +18°C° 0.1 mm 1 mps 741 mmHg 89%
    07:00 +19°C° 0.1 mm 1 mps 741 mmHg 84%
    08:00 +20°C° 0.1 mm 2 mps 741 mmHg 79%
    09:00 +21°C° 1 mm 2 mps 741 mmHg 79%
    10:00 +21°C° 1 mm 2 mps 741 mmHg 78%
    11:00 +22°C° 1 mm 3 mps 741 mmHg 77%
    12:00 +23°C° 0.7 mm 2 mps 741 mmHg 74%
    13:00 +24°C° 0.7 mm 2 mps 741 mmHg 72%
    14:00 +24°C° 0.7 mm 2 mps 741 mmHg 69%
    15:00 +24°C° 0.7 mm 2 mps 741 mmHg 72%
    16:00 +23°C° 0.7 mm 1 mps 741 mmHg 75%
    17:00 +23°C° 0.7 mm 1 mps 741 mmHg 78%
    18:00 +21°C° 0.3 mm 1 mps 741 mmHg 81%
    19:00 +20°C° 0.3 mm 1 mps 741 mmHg 85%
    20:00 +16°C° 0.3 mm 0 mps 741 mmHg 88%
    21:00 +16°C° 0 mm 0 mps 741 mmHg 89%
    22:00 +16°C° 0 mm 1 mps 742 mmHg 90%
    23:00 +15°C° 0 mm 1 mps 742 mmHg 91%

    24 July, Wednesday

    Time Temperature Precipitation Wind Pressure Humidity
    00:00 +15°C° 0 mm 1 mps 742 mmHg 91%
    01:00 +15°C° 0 mm 1 mps 742 mmHg 92%
    02:00 +14°C° 0 mm 1 mps 742 mmHg 93%
    03:00 +14°C° 0 mm 1 mps 742 mmHg 93%
    04:00 +14°C° 0 mm 1 mps 742 mmHg 93%
    05:00 +14°C° 0 mm 1 mps 742 mmHg 93%
    06:00 +16°C° 0 mm 1 mps 742 mmHg 88%
    07:00 +19°C° 0 mm 1 mps 743 mmHg 82%
    08:00 +21°C° 0 mm 1 mps 743 mmHg 76%
    09:00 +21°C° 0 mm 2 mps 743 mmHg 65%
    10:00 +24°C° 0 mm 2 mps 743 mmHg 54%
    11:00 +26°C° 0 mm 2 mps 743 mmHg 43%
    12:00 +26°C° 0 mm 2 mps 743 mmHg 43%
    13:00 +26°C° 0 mm 3 mps 743 mmHg 42%
    14:00 +26°C° 0 mm 3 mps 743 mmHg 42%
    15:00 +26°C° 0 mm 3 mps 743 mmHg 44%
    16:00 +26°C° 0 mm 3 mps 743 mmHg 47%
    17:00 +25°C° 0 mm 2 mps 743 mmHg 50%
    18:00 +23°C° 0 mm 2 mps 743 mmHg 59%
    19:00 +20°C° 0 mm 2 mps 743 mmHg 68%
    20:00 +19°C° 0 mm 1 mps 743 mmHg 76%
    21:00 +18°C° 0 mm 1 mps 744 mmHg 78%
    22:00 +16°C° 0 mm 1 mps 744 mmHg 80%
    23:00 +14°C° 0 mm 0 mps 744 mmHg 82%

    25 July, Thursday

    Time Temperature Precipitation Wind Pressure Humidity
    00:00 +14°C° 0 mm 0 mps 744 mmHg 83%
    01:00 +14°C° 0 mm 0 mps 744 mmHg 84%
    02:00 +14°C° 0 mm 1 mps 744 mmHg 85%
    03:00 +14°C° 0 mm 1 mps 744 mmHg 85%
    04:00 +15°C° 0 mm 1 mps 744 mmHg 86%
    05:00 +14°C° 0 mm 0 mps 745 mmHg 86%
    06:00 +18°C° 0 mm 1 mps 745 mmHg 78%
    07:00 +20°C° 0 mm 1 mps 745 mmHg 71%
    08:00 +22°C° 0 mm 1 mps 745 mmHg 63%
    09:00 +23°C° 0 mm 1 mps 745 mmHg 57%
    10:00 +25°C° 0 mm 1 mps 745 mmHg 50%
    11:00 +26°C° 0 mm 2 mps 745 mmHg 43%
    12:00 +27°C° 0 mm 2 mps 745 mmHg 42%
    13:00 +27°C° 0 mm 2 mps 745 mmHg 42%
    14:00 +28°C° 0 mm 2 mps 745 mmHg 41%
    15:00 +27°C° 0 mm 2 mps 745 mmHg 45%
    16:00 +27°C° 0 mm 2 mps 745 mmHg 49%
    17:00 +26°C° 0 mm 2 mps 745 mmHg 53%
    18:00 +25°C° 0 mm 2 mps 745 mmHg 61%
    19:00 +23°C° 0 mm 2 mps 745 mmHg 70%
    20:00 +20°C° 0 mm 2 mps 745 mmHg 79%
    21:00 +20°C° 0 mm 1 mps 745 mmHg 84%
    22:00 +19°C° 0 mm 1 mps 745 mmHg 88%
    23:00 +18°C° 0 mm 1 mps 745 mmHg 93%

    26 July, Friday

    Time Temperature Precipitation Wind Pressure Humidity
    00:00 +18°C° 0 mm 1 mps 745 mmHg 94%
    01:00 +16°C° 0 mm 2 mps 745 mmHg 96%
    02:00 +16°C° 0 mm 2 mps 745 mmHg 97%
    03:00 +16°C° 0 mm 2 mps 745 mmHg 95%
    04:00 +15°C° 0 mm 2 mps 745 mmHg 93%
    05:00 +15°C° 0 mm 2 mps 745 mmHg 91%
    06:00 +17°C° 0 mm 2 mps 745 mmHg 81%
    07:00 +18°C° 0 mm 3 mps 745 mmHg 70%
    08:00 +20°C° 0 mm 3 mps 746 mmHg 60%
    09:00 +21°C° 0 mm 3 mps 746 mmHg 56%
    10:00 +22°C° 0 mm 3 mps 746 mmHg 52%
    11:00 +24°C° 0 mm 3 mps 746 mmHg 49%
    12:00 +25°C° 0 mm 3 mps 745 mmHg 48%
    13:00 +25°C° 0 mm 3 mps 745 mmHg 48%
    14:00 +25°C° 0 mm 3 mps 745 mmHg 47%
    15:00 +25°C° 0 mm 3 mps 745 mmHg 50%
    16:00 +24°C° 0 mm 3 mps 744 mmHg 52%
    17:00 +24°C° 0 mm 3 mps 744 mmHg 55%
    18:00 +21°C° 0 mm 3 mps 744 mmHg 63%
    19:00 +19°C° 0 mm 2 mps 744 mmHg 71%
    20:00 +17°C° 0 mm 2 mps 744 mmHg 79%
    21:00 +16°C° 0 mm 2 mps 744 mmHg 81%
    22:00 +15°C° 0 mm 2 mps 744 mmHg 83%
    23:00 +15°C° 0 mm 2 mps 744 mmHg 85%
    Show more